STARLINK-36743

Last updated on Mon Mar 23 2026 00:02:07 GMT+0000 (Coordinated Universal Time)

1 67876U 26034AC 26080.91353882 .00490918 00000+0 23592-2 0 9997 2 67876 53.1576 149.8651 0003930 349.0903 11.0034 15.80806877 5879
UTC large
Height (km)
Speed (km/s)
/
Latitude / Longitude
Inclination (degrees)
Orbital Period (minutes)
Azimuth
Elevation
Range (km)
Doppler Factor

Next 0 passes for location: London (51.5072 / 0.1276)

Sorry there are no passes over London.